SCP
0 0 0 0 0 0 0 0 0 0 0 0 0 0 0 0 0 -0 -0 -0 0 0 0 0 0 0 0 -0 -0 -0 -0 -0 -0 -0 -0 -0 -0 -0 0 0 0 0 0 0
0 0 0 0 0 0 0 0 0 0 0 0 0 0 0 0 0 0 0 0 -0 -0 -0 -0 -0 -0 -0 0 0 0 0 -0 -0 -0 -0 -0 -0 -0 -0 -0 0 0 0 0
0 0 0 0 0 0 0 0 0 0 0 0 0 0 0 0 0 0 0 0 0 -0 -0 -0 -0 -0 -0 -0 0 -0 -0 -0 -0 -0 0 0 0 0 0 -0 0 0 0 0
0 0 0 0 0 0 0 0 0 0 0 0 0 0 0 0 0 0 0 0 -0 -0 -0 -0 -0 -0 -0 -0 -0 -0 -0 -0 0 0 0 0 0 0 0 0 0 0 0 0
0 0 0 0 0 0 0 0 0 0 0 0 0 0 0 -0 -0 0 -0 -0 -0 -0 -0 -0 -0 -0 -0 -0 -0 -0 -0 0 0 0 -0 -0 0 0 0 0 0 0 0 0
0 0 0 0 0 0 0 0 0 0 0 0 0 0 0 0 0 0 0 0 0 0 0 0 0 0 0 -0 -0 -0 -0 -0 0 0 0 0 0 -0 0 0 0 0 0 0
0 0 0 0 0 0 0 0 0 0 0 0 0 0 0 0 0 0 0 0 0 0 0 0 0 0 0 0 0 -0 -0 -0 -0 -0 -0 -0 0 0 0 0 0 0 0 0
0 0 0 0 0 0 0 0 0 0 0 0 0 0 0 0 0 0 0 0 0 0 0 0 0 0 0 0 0 0 0 -0 -0 -0 -0 -0 -0 -0 -0 0 0 0 0 0
0 0 0 0 0 0 0 0 0 0 0 0 0 0 0 0 0 0 0 0 0 0 0 0 0 0 0 0 0 0 0 -0 -0 -0 -0 -0 -0 -0 -0 -0 0 0 0 0
0 0 0 0 0 0 0 0 0 0 0 0 0 0 0 0 0 0 0 0 0 0 0 0 0 0 0 0 0 0 0 -0 -0 -0 -0 -0 -0 -0 -0 -0 -0 0 0 0
0 0 0 0 0 0 0 0 0 0 0 0 0 0 0 0 0 0 0 0 0 0 0 0 0 0 0 0 0 0 0 0 0 -0 -0 -0 -0 0 0 0 0 0 0 0
0 0 0 0 0 0 0 0 0 0 0 0 0 0 0 0 0 0 0 0 0 0 0 0 0 0 0 0 0 0 0 0 0 0 0 0 0 -0 0 0 0 -0 0 0
0 0 0 0 0 0 0 0 0 0 0 0 0 0 0 0 0 0 0 0 0 0 0 0 0 0 0 0 0 0 0 0 0 0 0 0 0 0 0 -0 0 0 0 0
0 0 0 0 0 0 0 0 0 0 0 0 0 0 0 0 0 0 0 0 0 0 0 0 0 0 0 0 0 0 0 0 0 0 0 0 0 0 0 0 0 0 0 0
0 0 0 0 0 0 0 0 0 0 0 0 0 0 0 0 0 0 0 0 0 0 0 -0 -0 0 0 0 0 0 0 0 0 0 0 0 0 0 0 0 0 0 0 0
0 0 0 0 0 0 0 0 0 0 0 0 0 0 0 0 0 0 0 0 0 0 -0 -0 0 0 0 0 0 0 0 0 0 0 0 0 0 0 0 0 0 0 0 0
0 0 0 0 0 0 0 0 0 0 0 0 0 0 0 0 0 0 0 0 0 0 0 0 0 0 0 0 0 0 0 0 0 0 0 0 0 0 0 0 0 0 0 0
0 0 0 0 0 0 0 0 0 0 0 0 0 0 0 0 -0 -0 0 0 0 0 0 0 0 0 0 0 0 0 0 0 -0 -0 -0 -0 -0 0 0 0 0 0 0 0
0 0 0 0 0 0 0 0 0 0 0 0 0 0 0 -0 -0 -0 0 0 0 0 0 0 -0 0 0 0 0 0 0 0 -0 -0 -0 -0 -0 -0 -0 0 0 0 0 0
0 0 0 0 0 0 0 0 0 0 0 0 0 -0 -0 -0 -0 -0 0 0 0 0 0 0 0 0 0 0 0 0 0 0 0 -0 -0 -0 -0 0 0 0 0 0 0 0
0 0 0 0 0 0 0 0 0 0 0 0 -0 -0 -0 -0 0 0 0 0 0 0 0 0 0 0 0 0 0 0 0 0 0 0 0 0 0 0 0 0 0 0 0 0
0 0 0 0 0 0 0 0 0 0 0 0 -0 -0 -0 -0 -0 -0 0 0 0 0 0 0 0 0 0 0 0 0 0 -0 -0 -0 0 -0 -0 -0 -0 -0 -0 0 0 0
0 0 0 0 0 0 0 0 0 0 0 -0 -0 -0 0 0 -0 -0 0 0 0 0 0 0 0 0 0 0 0 0 0 0 0 -0 -0 -0 0 0 0 0 0 0 0 0
0 0 0 0 0 0 0 0 0 0 -0 -0 0 0 0 0 -0 0 -0 -0 -0 -0 0 0 0 0 0 0 0 0 0 0 0 0 0 0 -0 -0 -0 -0 -0 0 0 0
0 0 0 0 0 0 0 0 -0 -0 0 0 0 0 0 0 -0 -0 -0 0 0 0 0 0 0 0 0 0 0 0 0 0 0 0 0 0 0 -0 -0 -0 -0 0 0 -0
0 0 0 0 0 0 -0 0 0 0 0 0 0 0 0 0 0 0 0 0 0 0 0 0 0 0 0 0 0 0 0 0 0 0 0 0 0 0 0 0 0 0 0 -0
0 0 0 -0 -0 -0 0 0 0 0 0 0 0 0 0 0 0 0 0 0 0 0 0 0 0 0 0 0 0 0 0 0 0 0 0 0 0 0 0 0 0 0 0 0
Wind_Speed_500mb
25 25 7 15 21 31 31 32 22 30 40 45 2 6 15 15 23 26 28 37 46 44 53 55 57 61 66 69 78 72 71 64 68 67 64 65 66 64 63 64 64 68 70 82
8 22 27 33 35 37 35 34 28 35 42 14 7 4 14 24 22 30 39 45 47 41 45 50 54 59 64 68 70 76 79 74 70 70 71 68 70 69 66 67 72 68 73 76
40 14 8 13 29 27 26 36 24 32 6 2 4 8 15 24 19 24 40 48 51 50 55 57 53 55 60 63 65 67 71 78 81 83 79 74 70 68 67 68 66 69 70 71
17 7 38 14 8 1 10 5 10 11 6 10 16 19 25 28 20 31 48 54 55 56 60 58 57 58 60 59 63 71 77 79 82 84 88 86 79 78 67 66 68 65 64 72
16 27 25 33 8 9 8 10 10 10 6 11 22 19 35 22 31 42 49 55 56 59 65 69 65 61 62 60 65 70 75 81 86 87 93 94 94 89 86 79 70 71 66 65
3 8 12 6 3 1 7 7 14 17 10 14 10 6 21 42 39 43 54 63 66 67 72 78 79 74 75 76 77 77 82 87 88 92 95 99 100 101 94 85 86 72 69 66
22 15 11 10 11 11 10 11 16 18 30 33 10 33 56 57 50 53 69 70 69 70 76 83 83 85 89 90 92 88 89 91 96 98 101 103 107 105 104 96 87 84 79 66
5 3 15 13 5 10 9 40 44 39 39 39 50 52 54 64 69 68 76 79 77 77 86 91 90 93 97 101 102 99 101 103 104 103 107 111 110 111 106 102 92 87 83 77
18 11 8 15 23 61 65 50 62 51 60 54 50 56 61 64 68 74 78 80 79 87 95 100 98 98 100 109 108 112 116 118 118 117 115 113 116 113 111 102 97 89 83 80
25 22 28 54 71 72 68 66 69 66 56 55 54 57 56 61 69 77 80 85 86 87 95 103 105 105 105 112 113 116 122 128 129 128 124 119 114 114 110 103 89 89 81 83
27 31 41 58 68 74 63 58 58 55 48 49 44 48 51 65 70 79 86 90 88 88 90 103 107 116 114 109 106 116 123 126 123 119 119 116 113 106 106 100 79 83 82 77
29 47 42 57 71 55 40 41 48 50 48 47 45 49 56 67 72 79 88 92 97 99 93 104 108 115 113 110 104 106 109 107 97 92 95 98 101 110 102 81 70 75 76 72
57 75 71 73 61 42 40 36 37 37 38 49 51 52 57 67 75 84 90 97 99 99 96 101 105 104 98 96 91 90 91 93 90 84 81 80 78 76 88 92 66 62 66 69
65 65 51 53 35 33 25 33 39 41 42 46 54 57 63 71 83 88 91 88 86 84 88 92 93 94 94 91 89 86 85 85 86 84 81 74 74 75 72 73 73 64 60 55
62 54 46 39 31 30 32 33 38 45 48 49 52 61 70 79 84 88 86 80 77 82 85 81 83 87 81 80 81 80 79 80 79 79 78 78 75 79 77 71 72 69 62 55
34 28 25 22 23 26 31 36 41 45 48 55 61 66 71 74 77 77 73 72 77 82 78 73 72 74 74 72 72 74 77 76 75 74 74 73 72 70 68 66 63 57 60 54
18 18 21 22 24 27 31 34 40 48 56 60 62 68 71 72 71 67 70 71 72 76 74 71 73 75 69 74 73 72 70 69 67 68 68 66 64 61 56 52 48 54 52 48
20 21 22 22 24 28 31 35 42 50 58 61 64 66 65 62 60 64 69 72 77 79 74 70 67 62 62 60 59 60 62 64 62 61 58 57 57 59 51 44 46 45 43 36
16 17 19 22 26 33 39 44 48 54 58 57 60 60 55 49 50 57 61 68 71 80 80 68 61 57 61 62 52 50 49 50 49 46 41 38 33 27 25 26 26 25 23 22
14 19 24 28 30 36 44 45 50 54 51 51 51 50 46 40 45 49 53 58 62 67 68 65 59 60 62 53 48 43 42 42 41 36 33 31 26 21 15 11 10 11 15 19
20 25 30 35 38 39 40 43 47 50 47 41 41 38 36 36 37 41 48 56 59 62 63 62 65 67 57 49 45 42 40 38 37 37 35 32 27 21 14 7 4 7 11 16
26 31 34 37 40 43 38 39 40 41 39 34 29 26 28 28 28 31 37 47 52 56 60 63 66 61 57 53 49 46 44 41 40 39 39 36 33 30 27 21 17 16 14 13
29 33 36 36 39 40 37 32 30 30 28 23 21 19 19 20 24 33 38 41 46 49 50 55 57 57 58 61 62 60 55 51 47 45 42 38 37 35 33 32 30 29 31 35
28 28 30 30 30 29 28 23 22 19 17 15 13 12 12 13 13 24 29 32 34 38 43 46 48 49 53 57 60 63 65 65 63 59 52 45 42 38 38 37 36 36 38 41
22 22 23 23 22 19 20 20 16 11 9 7 5 4 7 12 18 22 24 26 30 32 34 37 40 43 48 50 52 54 57 59 59 59 60 60 57 53 49 44 42 41 41 40
16 16 18 18 18 18 16 13 12 8 7 4 5 5 8 11 13 16 19 23 26 28 31 34 38 39 41 43 45 46 47 47 48 49 49 50 50 50 49 47 44 41 38 36
13 14 15 12 12 11 9 9 8 6 6 9 7 9 10 11 13 15 18 21 23 26 28 31 33 35 36 36 37 38 38 37 38 38 37 37 37 37 35 33 31 29 26 23
Wind_Direction_500mb
262 267 299 285 289 276 272 273 266 282 286 278 255 352 330 329 337 345 355 355 359 353 346 348 346 343 341 341 342 346 343 340 341 337 338 337 335 332 327 307 291 285 277 266
254 278 281 277 271 270 274 275 266 262 262 78 121 271 299 321 320 340 341 339 342 342 334 340 339 337 332 333 335 335 335 336 336 332 333 330 330 328 329 323 308 288 278 273
271 284 306 262 247 260 259 262 261 260 270 191 252 264 292 309 292 316 332 331 329 330 330 331 331 331 330 333 333 331 330 331 331 331 328 326 324 323 320 319 318 309 285 275
274 29 266 288 47 308 232 77 122 110 151 219 248 274 287 295 260 315 325 325 322 320 320 320 319 321 321 325 328 329 329 330 329 330 328 324 322 319 315 311 309 311 306 286
250 253 281 292 235 188 178 252 184 166 227 268 299 291 281 261 245 298 313 316 313 312 314 313 310 311 311 313 319 321 321 322 324 328 326 326 322 317 314 307 303 303 306 302
154 228 225 251 208 111 111 281 216 201 236 253 296 249 271 283 269 297 315 315 312 309 309 309 309 308 308 308 310 310 314 316 318 319 319 319 320 317 314 310 300 295 295 297
235 246 283 228 222 139 95 270 223 255 269 245 214 256 278 289 277 294 311 308 308 305 304 307 306 305 304 304 303 306 306 307 310 311 310 312 314 314 312 309 304 296 289 288
72 24 272 186 155 165 230 295 292 291 288 285 295 296 289 291 283 291 303 305 305 304 304 305 303 302 301 300 305 304 303 303 303 302 303 305 306 307 308 305 301 295 288 284
197 212 220 199 267 293 292 284 287 285 301 304 296 294 298 291 286 294 299 302 303 304 303 302 302 302 301 301 303 302 301 300 299 300 299 300 301 300 302 301 298 294 288 283
263 246 248 272 277 281 287 287 290 295 302 302 294 294 288 287 292 298 301 303 304 303 302 302 302 302 300 301 300 300 299 299 298 297 296 294 294 295 296 295 291 289 287 279
257 260 268 267 265 270 281 289 291 294 295 296 294 293 294 296 299 301 303 305 306 304 301 300 301 299 299 298 298 297 298 297 297 297 296 294 292 290 288 287 281 278 279 277
256 260 254 266 271 280 287 283 282 288 291 296 301 302 303 301 304 306 307 308 307 306 303 302 300 299 299 298 297 297 296 296 294 293 293 292 291 289 283 280 277 266 266 262
249 257 264 268 277 279 281 280 283 288 292 298 302 305 306 307 309 310 310 311 310 308 307 307 307 305 306 306 304 300 296 296 295 292 289 288 286 284 288 286 281 265 260 259
257 264 264 264 263 270 274 284 289 295 299 304 306 308 310 311 311 312 315 318 318 318 318 319 316 310 314 312 307 301 299 297 294 290 289 284 280 279 278 280 285 280 269 266
255 253 251 260 264 272 279 287 292 298 303 307 309 315 318 315 316 320 322 324 326 327 326 318 312 312 318 314 308 306 304 302 300 296 292 290 283 280 283 278 276 274 269 273
238 240 247 255 264 278 290 297 300 305 309 312 315 317 315 319 320 323 329 334 331 322 325 325 322 324 323 319 316 313 309 306 302 298 295 293 291 286 280 278 278 272 268 274
232 242 247 254 270 284 293 302 305 307 308 311 316 316 319 323 324 330 336 334 329 331 332 329 325 325 325 326 322 317 313 313 312 310 306 305 301 294 290 280 271 267 272 276
253 261 271 278 287 292 297 300 305 307 309 315 316 317 321 325 328 335 336 337 342 342 341 332 329 330 327 327 328 324 321 320 320 316 316 311 306 302 295 285 276 278 280 276
258 270 278 285 291 296 301 304 306 305 308 314 313 317 321 325 334 334 338 346 350 346 345 341 339 336 337 338 331 330 332 333 333 333 331 327 322 316 301 290 286 286 282 267
274 283 290 294 296 299 301 303 302 302 309 310 311 314 319 329 334 337 348 354 358 350 352 353 350 353 346 347 348 348 350 351 352 355 356 356 355 351 344 324 290 267 249 236
291 293 296 299 301 302 302 304 305 306 309 308 308 312 318 329 336 348 354 360 2 2 6 6 8 1 358 1 5 7 8 12 16 16 18 21 23 26 28 42 121 155 167 171
303 304 306 307 307 308 311 308 304 302 303 304 302 309 317 331 341 3 13 6 4 8 12 17 20 16 17 19 22 24 25 25 28 33 36 38 42 48 54 61 74 83 94 115
311 310 310 311 310 310 312 311 304 300 300 301 304 308 321 339 353 2 11 13 10 16 17 23 25 27 32 36 37 37 37 37 37 38 41 47 55 60 64 68 76 86 97 109
314 315 314 313 312 312 315 320 315 309 304 300 299 312 328 355 16 15 12 11 11 19 23 25 28 30 36 41 45 47 48 49 49 49 49 51 56 65 73 77 81 89 101 113
326 330 326 319 318 320 321 329 328 321 318 306 314 341 358 6 15 18 16 14 15 19 25 29 31 34 39 42 45 50 53 56 57 58 58 59 60 62 66 73 82 92 100 104
352 349 347 341 334 331 331 335 340 345 3 42 53 50 38 36 30 24 20 16 14 18 23 26 30 33 36 39 43 47 51 55 57 60 64 67 69 71 73 75 79 82 84 86
19 19 21 17 6 359 354 354 360 25 43 53 56 52 46 39 30 22 18 16 15 18 20 23 26 28 30 33 36 40 43 47 51 54 59 62 65 68 71 73 76 81 84 88
Wind_Speed_850mb
25 25 7 15 21 31 31 32 22 30 40 45 2 6 15 15 23 26 28 37 46 44 53 55 57 61 66 69 78 72 71 64 68 67 64 65 66 64 63 64 64 68 70 82
8 22 27 33 35 37 35 34 28 35 42 14 7 4 14 24 22 30 39 45 47 41 45 50 54 59 64 68 70 76 79 74 70 70 71 68 70 69 66 67 72 68 73 76
40 14 8 13 29 27 26 36 24 32 6 2 4 8 15 24 19 24 40 48 51 50 55 57 53 55 60 63 65 67 71 78 81 83 79 74 70 68 67 68 66 69 70 71
17 7 38 14 8 1 10 5 10 11 6 10 16 19 25 28 20 31 48 54 55 56 60 58 57 58 60 59 63 71 77 79 82 84 88 86 79 78 67 66 68 65 64 72
16 27 25 33 8 9 8 10 10 10 6 11 22 19 35 22 31 42 49 55 56 59 65 69 65 61 62 60 65 70 75 81 86 87 93 94 94 89 86 79 70 71 66 65
3 8 12 6 3 1 7 7 14 17 10 14 10 6 21 42 39 43 54 63 66 67 72 78 79 74 75 76 77 77 82 87 88 92 95 99 100 101 94 85 86 72 69 66
22 15 11 10 11 11 10 11 16 18 30 33 10 33 56 57 50 53 69 70 69 70 76 83 83 85 89 90 92 88 89 91 96 98 101 103 107 105 104 96 87 84 79 66
5 3 15 13 5 10 9 40 44 39 39 39 50 52 54 64 69 68 76 79 77 77 86 91 90 93 97 101 102 99 101 103 104 103 107 111 110 111 106 102 92 87 83 77
18 11 8 15 23 61 65 50 62 51 60 54 50 56 61 64 68 74 78 80 79 87 95 100 98 98 100 109 108 112 116 118 118 117 115 113 116 113 111 102 97 89 83 80
25 22 28 54 71 72 68 66 69 66 56 55 54 57 56 61 69 77 80 85 86 87 95 103 105 105 105 112 113 116 122 128 129 128 124 119 114 114 110 103 89 89 81 83
27 31 41 58 68 74 63 58 58 55 48 49 44 48 51 65 70 79 86 90 88 88 90 103 107 116 114 109 106 116 123 126 123 119 119 116 113 106 106 100 79 83 82 77
29 47 42 57 71 55 40 41 48 50 48 47 45 49 56 67 72 79 88 92 97 99 93 104 108 115 113 110 104 106 109 107 97 92 95 98 101 110 102 81 70 75 76 72
57 75 71 73 61 42 40 36 37 37 38 49 51 52 57 67 75 84 90 97 99 99 96 101 105 104 98 96 91 90 91 93 90 84 81 80 78 76 88 92 66 62 66 69
65 65 51 53 35 33 25 33 39 41 42 46 54 57 63 71 83 88 91 88 86 84 88 92 93 94 94 91 89 86 85 85 86 84 81 74 74 75 72 73 73 64 60 55
62 54 46 39 31 30 32 33 38 45 48 49 52 61 70 79 84 88 86 80 77 82 85 81 83 87 81 80 81 80 79 80 79 79 78 78 75 79 77 71 72 69 62 55
34 28 25 22 23 26 31 36 41 45 48 55 61 66 71 74 77 77 73 72 77 82 78 73 72 74 74 72 72 74 77 76 75 74 74 73 72 70 68 66 63 57 60 54
18 18 21 22 24 27 31 34 40 48 56 60 62 68 71 72 71 67 70 71 72 76 74 71 73 75 69 74 73 72 70 69 67 68 68 66 64 61 56 52 48 54 52 48
20 21 22 22 24 28 31 35 42 50 58 61 64 66 65 62 60 64 69 72 77 79 74 70 67 62 62 60 59 60 62 64 62 61 58 57 57 59 51 44 46 45 43 36
16 17 19 22 26 33 39 44 48 54 58 57 60 60 55 49 50 57 61 68 71 80 80 68 61 57 61 62 52 50 49 50 49 46 41 38 33 27 25 26 26 25 23 22
14 19 24 28 30 36 44 45 50 54 51 51 51 50 46 40 45 49 53 58 62 67 68 65 59 60 62 53 48 43 42 42 41 36 33 31 26 21 15 11 10 11 15 19
20 25 30 35 38 39 40 43 47 50 47 41 41 38 36 36 37 41 48 56 59 62 63 62 65 67 57 49 45 42 40 38 37 37 35 32 27 21 14 7 4 7 11 16
26 31 34 37 40 43 38 39 40 41 39 34 29 26 28 28 28 31 37 47 52 56 60 63 66 61 57 53 49 46 44 41 40 39 39 36 33 30 27 21 17 16 14 13
29 33 36 36 39 40 37 32 30 30 28 23 21 19 19 20 24 33 38 41 46 49 50 55 57 57 58 61 62 60 55 51 47 45 42 38 37 35 33 32 30 29 31 35
28 28 30 30 30 29 28 23 22 19 17 15 13 12 12 13 13 24 29 32 34 38 43 46 48 49 53 57 60 63 65 65 63 59 52 45 42 38 38 37 36 36 38 41
22 22 23 23 22 19 20 20 16 11 9 7 5 4 7 12 18 22 24 26 30 32 34 37 40 43 48 50 52 54 57 59 59 59 60 60 57 53 49 44 42 41 41 40
16 16 18 18 18 18 16 13 12 8 7 4 5 5 8 11 13 16 19 23 26 28 31 34 38 39 41 43 45 46 47 47 48 49 49 50 50 50 49 47 44 41 38 36
13 14 15 12 12 11 9 9 8 6 6 9 7 9 10 11 13 15 18 21 23 26 28 31 33 35 36 36 37 38 38 37 38 38 37 37 37 37 35 33 31 29 26 23
Wind_Direction_850mb
262 267 299 285 289 276 272 273 266 282 286 278 255 352 330 329 337 345 355 355 359 353 346 348 346 343 341 341 342 346 343 340 341 337 338 337 335 332 327 307 291 285 277 266
254 278 281 277 271 270 274 275 266 262 262 78 121 271 299 321 320 340 341 339 342 342 334 340 339 337 332 333 335 335 335 336 336 332 333 330 330 328 329 323 308 288 278 273
271 284 306 262 247 260 259 262 261 260 270 191 252 264 292 309 292 316 332 331 329 330 330 331 331 331 330 333 333 331 330 331 331 331 328 326 324 323 320 319 318 309 285 275
274 29 266 288 47 308 232 77 122 110 151 219 248 274 287 295 260 315 325 325 322 320 320 320 319 321 321 325 328 329 329 330 329 330 328 324 322 319 315 311 309 311 306 286
250 253 281 292 235 188 178 252 184 166 227 268 299 291 281 261 245 298 313 316 313 312 314 313 310 311 311 313 319 321 321 322 324 328 326 326 322 317 314 307 303 303 306 302
154 228 225 251 208 111 111 281 216 201 236 253 296 249 271 283 269 297 315 315 312 309 309 309 309 308 308 308 310 310 314 316 318 319 319 319 320 317 314 310 300 295 295 297
235 246 283 228 222 139 95 270 223 255 269 245 214 256 278 289 277 294 311 308 308 305 304 307 306 305 304 304 303 306 306 307 310 311 310 312 314 314 312 309 304 296 289 288
72 24 272 186 155 165 230 295 292 291 288 285 295 296 289 291 283 291 303 305 305 304 304 305 303 302 301 300 305 304 303 303 303 302 303 305 306 307 308 305 301 295 288 284
197 212 220 199 267 293 292 284 287 285 301 304 296 294 298 291 286 294 299 302 303 304 303 302 302 302 301 301 303 302 301 300 299 300 299 300 301 300 302 301 298 294 288 283
263 246 248 272 277 281 287 287 290 295 302 302 294 294 288 287 292 298 301 303 304 303 302 302 302 302 300 301 300 300 299 299 298 297 296 294 294 295 296 295 291 289 287 279
257 260 268 267 265 270 281 289 291 294 295 296 294 293 294 296 299 301 303 305 306 304 301 300 301 299 299 298 298 297 298 297 297 297 296 294 292 290 288 287 281 278 279 277
256 260 254 266 271 280 287 283 282 288 291 296 301 302 303 301 304 306 307 308 307 306 303 302 300 299 299 298 297 297 296 296 294 293 293 292 291 289 283 280 277 266 266 262
249 257 264 268 277 279 281 280 283 288 292 298 302 305 306 307 309 310 310 311 310 308 307 307 307 305 306 306 304 300 296 296 295 292 289 288 286 284 288 286 281 265 260 259
257 264 264 264 263 270 274 284 289 295 299 304 306 308 310 311 311 312 315 318 318 318 318 319 316 310 314 312 307 301 299 297 294 290 289 284 280 279 278 280 285 280 269 266
255 253 251 260 264 272 279 287 292 298 303 307 309 315 318 315 316 320 322 324 326 327 326 318 312 312 318 314 308 306 304 302 300 296 292 290 283 280 283 278 276 274 269 273
238 240 247 255 264 278 290 297 300 305 309 312 315 317 315 319 320 323 329 334 331 322 325 325 322 324 323 319 316 313 309 306 302 298 295 293 291 286 280 278 278 272 268 274
232 242 247 254 270 284 293 302 305 307 308 311 316 316 319 323 324 330 336 334 329 331 332 329 325 325 325 326 322 317 313 313 312 310 306 305 301 294 290 280 271 267 272 276
253 261 271 278 287 292 297 300 305 307 309 315 316 317 321 325 328 335 336 337 342 342 341 332 329 330 327 327 328 324 321 320 320 316 316 311 306 302 295 285 276 278 280 276
258 270 278 285 291 296 301 304 306 305 308 314 313 317 321 325 334 334 338 346 350 346 345 341 339 336 337 338 331 330 332 333 333 333 331 327 322 316 301 290 286 286 282 267
274 283 290 294 296 299 301 303 302 302 309 310 311 314 319 329 334 337 348 354 358 350 352 353 350 353 346 347 348 348 350 351 352 355 356 356 355 351 344 324 290 267 249 236
291 293 296 299 301 302 302 304 305 306 309 308 308 312 318 329 336 348 354 360 2 2 6 6 8 1 358 1 5 7 8 12 16 16 18 21 23 26 28 42 121 155 167 171
303 304 306 307 307 308 311 308 304 302 303 304 302 309 317 331 341 3 13 6 4 8 12 17 20 16 17 19 22 24 25 25 28 33 36 38 42 48 54 61 74 83 94 115
311 310 310 311 310 310 312 311 304 300 300 301 304 308 321 339 353 2 11 13 10 16 17 23 25 27 32 36 37 37 37 37 37 38 41 47 55 60 64 68 76 86 97 109
314 315 314 313 312 312 315 320 315 309 304 300 299 312 328 355 16 15 12 11 11 19 23 25 28 30 36 41 45 47 48 49 49 49 49 51 56 65 73 77 81 89 101 113
326 330 326 319 318 320 321 329 328 321 318 306 314 341 358 6 15 18 16 14 15 19 25 29 31 34 39 42 45 50 53 56 57 58 58 59 60 62 66 73 82 92 100 104
352 349 347 341 334 331 331 335 340 345 3 42 53 50 38 36 30 24 20 16 14 18 23 26 30 33 36 39 43 47 51 55 57 60 64 67 69 71 73 75 79 82 84 86
19 19 21 17 6 359 354 354 360 25 43 53 56 52 46 39 30 22 18 16 15 18 20 23 26 28 30 33 36 40 43 47 51 54 59 62 65 68 71 73 76 81 84 88